Location: Auckland
(36.8670°S, 174.7670°E)
Time: 19:54:20
(UTC+12:00)

Tiros 1 despin weight - Pass Details

Date: 26 July 2019
Orbit: 594 x 642 km, 48.2° (Epoch: 18 August)

Event Time Altitude Azimuth Distance (km) Brightness Sun altitude
Rises 20:50:46 0° 334° (NNW) 2,839 - -39.9°
Reaches altitude 10° 20:53:16 10° 345° (NNW) 1,937 - -40.4°
Maximum altitude 20:57:07 29° 45° (NE) 1,103 - -41.2°
Drops below altitude 10° 21:00:59 10° 105° (ESE) 1,945 - -41.9°
Sets 21:03:30 0° 116° (ESE) 2,853 - -42.4°
